EW1425 Fairhaven MA US current weather conditions

sailwx.info

Last reported at 2020-Jan-25 10:00 UTC.
Time now 2020-Jan-25 10:55 UTC

Location: N 41°38' W 070°54'.
View on Google Maps.

See reports from other nearby stations

  
Tides and Currents Weather Stations Pressure Air Temp Water Temp Dewpoint Dewpoint Depression Visibility Wind Speed Wind Dir Waves Ship Positions
date/time (UTC)wind fromknots sea level pressurealtimeterstation pressurevisibilityair tempwater tempwave heightnotes
2020-Jan-25 10:00
2020-Jan-25 09:45
2020-Jan-25 09:30 043 -67.8
2020-Jan-25 09:15 041 -0.6
2020-Jan-25 09:00 041 -0.6
2020-Jan-25 08:45 041 -1.1
2020-Jan-25 08:30 041 -1.1
2020-Jan-25 08:17 041 -1.1
2020-Jan-25 08:01 041 -1.1
2020-Jan-25 07:48 041 -1.1
2020-Jan-25 07:33 041 -0.6
2020-Jan-25 07:17 041 -0.6
2020-Jan-25 07:03 041 -0.0
2020-Jan-25 06:47 041 0.6
2020-Jan-25 06:32 041 0.6
2020-Jan-25 06:16 041 1.1
2020-Jan-25 06:02 050 1.1
2020-Jan-25 05:47 012 0.6
2020-Jan-25 05:32 041 0.6
2020-Jan-25 05:16 041 0.6
2020-Jan-25 05:01 041 0.6
2020-Jan-25 04:46 041 0.6
2020-Jan-25 04:32 041 1.1
2020-Jan-25 04:16 041 1.7
2020-Jan-25 04:01 027 2.2
2020-Jan-25 03:45 001 2.2
2020-Jan-25 03:30 001 2.8
2020-Jan-25 03:15 013 2.2
2020-Jan-25 03:00 012 2.2
2020-Jan-25 02:45 055 2.2
2020-Jan-25 02:33 043 2.2
2020-Jan-25 02:18 061 1.7
2020-Jan-25 02:01 039 1.7
2020-Jan-25 01:49 041 1.7
2020-Jan-25 01:31 040 1.7
2020-Jan-25 01:16 060 1.1
2020-Jan-25 01:01 034 1.1
2020-Jan-25 00:46 032 1.1
2020-Jan-25 00:32 079 1.1
2020-Jan-25 00:15 079 1.7
2020-Jan-25 00:00 079 1.7
2020-Jan-24 23:45 079 2.2
2020-Jan-24 23:30 080 2.2
2020-Jan-24 23:15 080 2.8
2020-Jan-24 23:02 096 3.3
2020-Jan-24 22:46 097 3.3
2020-Jan-24 22:31 098 3.9
2020-Jan-24 22:16 089 3.9
2020-Jan-24 22:02 089 5.0
2020-Jan-24 21:47 323 6.1
2020-Jan-24 21:32 077 0 gusting 4 6.7
2020-Jan-24 21:16 348 0 gusting 4 7.2
2020-Jan-24 21:01 108 0 gusting 4 7.8
2020-Jan-24 20:46 120 0 gusting 4 8.3
2020-Jan-24 20:30 033 0 gusting 4 8.9
2020-Jan-24 20:15 346 0 gusting 5 9.4
2020-Jan-24 20:00 045 0 gusting 5 10.0
2020-Jan-24 19:45 076 0 gusting 6 10.0
2020-Jan-24 19:30 325 0 gusting 4 10.6
2020-Jan-24 19:17 046 0 gusting 3 11.1
2020-Jan-24 19:03 231 10.0
2020-Jan-24 18:48 207 8.3
2020-Jan-24 18:31 219 8.3
2020-Jan-24 18:17 132 8.9
2020-Jan-24 18:01 228 9.4
2020-Jan-24 17:46 200 8.9
2020-Jan-24 17:31 231 8.3
2020-Jan-24 17:15 172 8.3
2020-Jan-24 17:01 221 8.3
2020-Jan-24 16:45 276 7.8
2020-Jan-24 16:30 176 7.8
2020-Jan-24 16:15 124 7.2
2020-Jan-24 16:00 074 6.7
2020-Jan-24 15:45 336 6.7
2020-Jan-24 15:32 060 6.1
2020-Jan-24 15:17 359 5.6
2020-Jan-24 15:02 068 5.0
2020-Jan-24 14:46 312 4.4
2020-Jan-24 14:32 020 3.9
2020-Jan-24 14:16 320 2.8
2020-Jan-24 14:01 354 2.2
2020-Jan-24 13:46 360 1.1
2020-Jan-24 13:30 338 0.6
2020-Jan-24 13:01
2020-Jan-24 12:45
2020-Jan-24 12:30
2020-Jan-24 12:15
2020-Jan-24 12:00
2020-Jan-24 11:48
2020-Jan-24 11:31
2020-Jan-24 11:17
2020-Jan-24 10:46
2020-Jan-24 10:31
2020-Jan-24 10:16
2020-Jan-24 09:45
2020-Jan-24 09:30 243 -1.7
2020-Jan-24 09:15 243 -1.7
2020-Jan-24 08:46 243 -1.7
2020-Jan-24 08:31 243 -1.7
2020-Jan-24 08:16 243 -1.7
2020-Jan-24 07:45 243 -1.7
2020-Jan-24 07:30 243 -1.1
2020-Jan-24 07:16 243 -1.1
2020-Jan-24 06:45 243 -1.1
2020-Jan-24 06:30 243 -1.1
2020-Jan-24 06:15 243 -1.1
2020-Jan-24 05:45 243 -1.1
2020-Jan-24 05:30 243 -1.1
2020-Jan-24 05:15 243 -1.1
2020-Jan-24 04:45 243 -0.6
2020-Jan-24 04:30 243 -0.6
2020-Jan-24 04:15 243 -0.6
2020-Jan-24 03:45 243 -0.6
2020-Jan-24 03:30 243 -0.6
2020-Jan-24 03:15 243 -0.6
2020-Jan-24 02:45 243 -0.6
2020-Jan-24 02:30 243 -0.6
2020-Jan-24 02:15 243 -0.0
2020-Jan-24 01:47 243 -0.0
2020-Jan-24 01:31 243 0.6
2020-Jan-24 01:17 244 1.1
2020-Jan-24 00:47 244 1.1
2020-Jan-24 00:32 244 1.7
2020-Jan-24 00:17 244 1.7
2020-Jan-23 23:46 190 1.7
2020-Jan-23 23:32 190 1.7
2020-Jan-23 23:18 213 1.7
2020-Jan-23 22:46 212 1.7
2020-Jan-23 22:32 226 2.2
2020-Jan-23 22:18 226 2.8
2020-Jan-23 21:46 262 3.3
2020-Jan-23 21:32 251 3.9
2020-Jan-23 21:17 192 4.4
2020-Jan-23 20:47 210 5.0
2020-Jan-23 20:31 200 5.6
2020-Jan-23 20:17 198 0 gusting 4 6.1
2020-Jan-23 19:46 238 0 gusting 3 7.2
2020-Jan-23 19:32 233 7.8
2020-Jan-23 19:16 214 0 gusting 3 7.8
2020-Jan-23 18:47 227 0 gusting 4 7.8
2020-Jan-23 18:32 278 7.8
2020-Jan-23 18:16 248 0 gusting 4 7.2
2020-Jan-23 17:46 335 0 gusting 4 7.2
2020-Jan-23 17:31 293 0 gusting 3 6.7
2020-Jan-23 17:17 013 6.1
2020-Jan-23 16:47 345 6.1
2020-Jan-23 16:31 290 5.6
2020-Jan-23 16:16 203 0 gusting 5 5.6
2020-Jan-23 15:45 267 4.4
2020-Jan-23 15:30 206 0 gusting 4 4.4
2020-Jan-23 15:15 226 3.9
2020-Jan-23 14:47 221 3.3
2020-Jan-23 14:32 233 2.8
2020-Jan-23 14:17 261 1.7
2020-Jan-23 13:47 211 -0.0
2020-Jan-23 13:31 205 -1.1
2020-Jan-23 13:16 205 -2.8
2020-Jan-23 12:46
2020-Jan-23 12:30
2020-Jan-23 12:15
2020-Jan-23 11:45
2020-Jan-23 11:30
2020-Jan-23 11:15
2020-Jan-23 10:47
2020-Jan-23 10:31
2020-Jan-23 10:16